Tracking 33197 objects as of 18-Feb-2026
HD Live streaming from Space Station
objects crossing your sky now

ZY 3

Track ZY 3 now!
10-day predictions
ZY 3 is classified as:


NORAD ID: 38046
Int'l Code: 2012-001A
Perigee: 312.7 km
Apogee: 313.3 km
Inclination: 97.2 °
Period: 90.6 minutes
Semi major axis: 6684 km
RCS: 5.391 m2 (large)
Launch date: January 9, 2012
Source: People's Republic of China (PRC)
Launch site: Taiyaun Space Center, China (TSC)
Your satellite tracking list
Your tracking list is empty




NASA's NSSDC Master Catalog

Two Line Element Set (TLE):
1 38046U 12001A   26048.86183957  .00247352  00000-0  86317-3 0  9993
2 38046  97.1571 122.6084 0000478 193.4994 166.6266 15.88716712785542
Source of the keplerian elements: AFSPC